{"data":{"norad_id":62498,"intl_designator":"2025-003M","name":"STARLINK-32739","alt_names":[],"object_type":"PAYLOAD","status":"ACTIVE","operator":null,"country":"US","launch_date":"2025-01-06","launch_site_code":"AFETR","launch_vehicle":null,"mission":null,"orbit_class":"UNKNOWN","rcs_meters":null,"size_class":null,"mass_kg":null,"dimensions":null,"purposes":["comms"],"wikipedia_slug":null,"has_3d_model":false,"image_url":null,"decayed_at":null,"tle_current":{"epoch":"2026-05-25T04:53:39.813792Z","epoch_age_seconds":47684,"freshness":"FRESH","line1":"1 62498U 25003M   26145.20393303  .00018212  00000+0  66954-3 0  9996","line2":"2 62498  42.9996 216.8380 0001319 276.4779  83.5922 15.27587757 78327","mean_motion":15.27587757,"eccentricity":0.0001319,"inclination_deg":42.9996,"raan_deg":216.838,"arg_perigee_deg":276.4779,"mean_anomaly_deg":83.5922,"bstar":0.00066954,"rev_number":7832,"period_min":94.266270032694,"perigee_km":482.12088150697,"apogee_km":483.93085627178,"semimajor_km":6861.1628688894,"source":"CELESTRAK","updated_at":"2026-05-25T13:38:19.698476Z"}}}